Location: Eferding
(48.3167°N, 14.0167°E)
Time: 23:29:40
(UTC+00:00)

USA 116 - Pass Details

Date: 12 November 2019
Orbit: 405 x 834 km, 97.9° (Epoch: 18 November)

Event Time Altitude Azimuth Distance (km) Brightness Sun altitude
Exits shadow 17:56:23 25° 2° (N) 1,292 5.5 -24.4°
Maximum altitude 17:58:54 66° 287° (WNW) 728 4.4 -24.9°
Drops below altitude 10° 18:03:41 10° 206° (SSW) 2,199 7.0 -25.7°
Sets 18:06:05 0° 203° (SSW) 3,168 7.9 -26.1°
